Regional Weather Roundup
Issued by NWS

Home | Current Version | Previous Version | Graphics & Text | Print | Product List | Glossary On
Versions: 1 2 3 4 5 6 7 8 9 10 11 12 13 14 15 16 17 18 19 20 21 22 23 24 25 26 27 28 29 30 31 32 33 34 35 36 37 38 39 40 41 42 43 44 45 46 47 48 49 50
000
ASUS43 KBIS 221810
RWRND

NORTH DAKOTA REGIONAL WEATHER ROUNDUP
NATIONAL WEATHER SERVICE BISMARCK ND
1200 PM CST MON DEC 22 2014

NOTE: "FAIR" INDICATES FEW OR NO CLOUDS BELOW 12,000 FEET WITH NO
SIGNIFICANT WEATHER AND/OR OBSTRUCTIONS TO VISIBILITY.


NDZ001>003-009>011-017-221900-
NORTHWEST NORTH DAKOTA

CITY           SKY/WX    TMP DP  RH WIND       PRES   REMARKS
WILLISTON      CLOUDY    26  22  84 N16       29.61R WCI  14
6HR MIN TEMP:  26; 6HR MAX TEMP:  29;

MINOT          CLOUDY    29  26  89 N8        29.55R
$$

NDZ018>021-031>035-040>046-221900-
SOUTHWEST NORTH DAKOTA

CITY           SKY/WX    TMP DP  RH WIND       PRES   REMARKS
BISMARCK       CLOUDY    29  27  92 N6        29.50S
6HR MIN TEMP:  28; 6HR MAX TEMP:  29;

DICKINSON      SNOW      27  23  85 NW18      29.51R VSB 1/2 WCI  14
GARRISON         N/A     30  28  92 N6        29.52S
6HR MIN TEMP:  28; 6HR MAX TEMP:  30;

HETTINGER ARPT LGT SNOW  28  24  85 NW24G33   29.52R VSB 3/4 WCI  14
$$

NDZ004>008-012>016-024-026-027-054-221900-
NORTHEAST NORTH DAKOTA

CITY           SKY/WX    TMP DP  RH WIND       PRES   REMARKS
GRAND FORKS    DRIZZLE   36  36 100 E8        29.53F FOG
DEVILS LAKE    CLOUDY    34  32  93 NE8       29.51R
$$

NDZ022-023-025-028>030-036>039-047>053-221900-
SOUTHEAST NORTH DAKOTA

CITY           SKY/WX    TMP DP  RH WIND       PRES   REMARKS
FARGO          LGT RAIN  40  38  93 SE9       29.50S FOG
6HR MIN TEMP:  37; 6HR MAX TEMP:  40; 6HR PCP:  0.02;

JAMESTOWN      FOG       33  32  96 NE7       29.46S VSB 1/4
$$




USA.gov is the U.S. government's official web portal to all federal, state and local government web resources and services.